GW0821 Weather Reports


time (UTC)temp
F
wind
direction
speed
knots
gust
knots
rain 1hr
in
rain 24hr
in
rain mn
in
humidity
%
barometer
mb
20260903213057 73 0 0.0 0.9 0.00 0.00 0.00 84 1022.1
20260903211601 73 0 0.0 0.9 0.00 0.00 0.00 83 1022.1
20260903210054 74 0 0.0 0.0 0.00 0.00 0.00 82 1022.2
20260903204559 74 0 0.0 0.9 0.00 0.00 0.00 82 1022.2
20260903203056 75 0 0.0 0.0 0.00 0.00 0.00 81 1022.1
20260903201554 76 0 0.0 0.0 0.00 0.00 0.00 81 1022.1
20260903200110 76 0 0.0 0.9 0.00 0.00 0.00 80 1022.1
20260903194553 76 0 0.0 0.9 0.00 0.00 0.00 79 1021.9
20260903193103 77 0 0.9 2.6 0.00 0.00 0.00 79 1021.8
20260903191600 77 0 0.0 2.6 0.00 0.00 0.00 78 1021.6
20260903190051 78 162 0.9 2.6 0.00 0.00 0.00 77 1021.5
20260903184552 78 243 0.9 4.3 0.00 0.00 0.00 76 1021.5
20260903183114 79 0 0.0 3.5 0.00 0.00 0.00 75 1021.3
20260903181554 79 261 1.7 7.0 0.00 0.00 0.00 74 1021.3
20260903180057 80 155 1.7 6.1 0.00 0.00 0.00 73 1021.0
20260903174551 81 201 1.7 7.0 0.00 0.00 0.00 71 1021.0
20260903173101 82 224 2.6 7.0 0.00 0.00 0.00 68 1020.9
20260903171551 84 181 2.6 6.1 0.00 0.00 0.00 65 1020.9
20260903170055 85 156 1.7 7.0 0.00 0.00 0.00 64 1020.8
20260903164555 85 144 3.5 7.8 0.00 0.00 0.00 63 1020.8
20260903163050 86 165 3.5 11.3 0.00 0.00 0.00 62 1020.8
20260903161615 87 200 2.6 8.7 0.00 0.00 0.00 60 1020.7
20260903160053 87 191 2.6 9.6 0.00 0.00 0.00 61 1020.6
20260903154550 87 120 5.2 9.6 0.00 0.00 0.00 59 1020.7
20260903153051 88 203 3.5 10.4 0.00 0.00 0.00 56 1020.6
20260903151550 88 165 4.3 12.2 0.00 0.00 0.00 56 1020.7
20260903144558 88 191 5.2 12.2 0.00 0.00 0.00 53 1020.9
20260903143054 89 146 3.5 11.3 0.00 0.00 0.00 51 1020.8
20260903141549 89 127 4.3 13.9 0.00 0.00 0.00 49 1020.9
20260903140054 89 152 4.3 10.4 0.00 0.00 0.00 46 1020.9
20260903134601 89 209 4.3 11.3 0.00 0.00 0.00 44 1021.1
20260903133050 89 129 3.5 9.6 0.00 0.00 0.00 44 1021.2
20260903131554 89 150 4.3 7.8 0.00 0.00 0.00 44 1021.2
20260903130052 88 198 5.2 11.3 0.00 0.00 0.00 45 1021.3
20260903124558 88 191 5.2 10.4 0.00 0.00 0.00 45 1021.3
20260903123053 87 212 3.5 8.7 0.00 0.00 0.00 47 1021.3
20260903121556 88 193 3.5 7.8 0.00 0.00 0.00 46 1021.4
20260903120049 87 217 5.2 8.7 0.00 0.00 0.00 46 1021.4
20260903114602 87 144 3.5 8.7 0.00 0.00 0.00 45 1021.5
20260903113053 86 127 5.2 11.3 0.00 0.00 0.00 45 1021.6
20260903111550 86 191 3.5 8.7 0.00 0.00 0.00 44 1021.8
20260903110059 86 215 2.6 7.0 0.00 0.00 0.00 45 1021.9
20260903104555 85 196 5.2 9.6 0.00 0.00 0.00 45 1022.2
20260903103052 85 212 1.7 8.7 0.00 0.00 0.00 45 1022.3
20260903101551 85 153 3.5 9.6 0.00 0.00 0.00 45 1022.3
20260903094604 85 200 2.6 8.7 0.00 0.00 0.00 45 1022.5
20260903093053 85 196 2.6 7.8 0.00 0.00 0.00 46 1022.5
20260903091556 84 219 2.6 5.2 0.00 0.00 0.00 48 1022.3
20260903090058 83 177 2.6 6.1 0.00 0.00 0.00 50 1022.3
20260903084554 80 170 0.0 0.9 0.00 0.00 0.00 60 1022.4
20260903083058 77 267 0.9 2.6 0.00 0.00 0.00 64 1022.2
20260903081552 76 61 1.7 4.3 0.00 0.00 0.00 67 1022.3
20260903074553 73 347 1.7 5.2 0.00 0.00 0.00 71 1022.3
20260903073110 72 129 0.9 1.7 0.00 0.00 0.00 73 1022.3
20260903071553 70 144 1.7 3.5 0.00 0.00 0.00 75 1022.4
20260903070048 68 0 0.0 1.7 0.00 0.00 0.00 77 1022.5
20260903064556 67 0 0.0 0.0 0.00 0.00 0.00 81 1022.6
20260903063100 64 0 0.0 0.9 0.00 0.00 0.00 86 1022.6
20260903061553 62 223 0.0 0.0 0.00 0.00 0.00 87 1022.5
20260903060058 62 0 0.0 0.0 0.00 0.00 0.00 87 1022.4
20260903054555 62 0 0.0 0.0 0.00 0.00 0.00 87 1022.3
20260903053050 62 0 0.0 0.0 0.00 0.00 0.00 88 1022.2
20260903051601 61 0 0.0 0.0 0.00 0.00 0.00 88 1022.1
20260903050059 61 0 0.0 0.0 0.00 0.00 0.00 88 1022.0
20260903044551 61 0 0.0 0.0 0.00 0.00 0.00 87 1021.9
20260903043101 62 0 0.0 0.0 0.00 0.00 0.00 87 1021.9
20260903041556 62 0 0.0 0.0 0.00 0.00 0.00 87 1021.8
20260903040053 62 0 0.0 0.0 0.00 0.00 0.00 86 1021.9
20260903034548 62 0 0.0 0.0 0.00 0.00 0.00 86 1022.2
20260903033101 62 0 0.0 0.0 0.00 0.00 0.00 86 1022.2
20260903031554 63 0 0.0 0.0 0.00 0.00 0.00 85 1022.2
20260903030104 63 0 0.0 0.0 0.00 0.00 0.00 85 1022.3
20260903024548 63 0 0.0 0.0 0.00 0.00 0.00 85 1022.4
20260903023054 63 0 0.0 0.0 0.00 0.00 0.00 85 1022.4
20260903021552 63 0 0.0 0.0 0.00 0.00 0.00 84 1022.5
20260903020056 64 0 0.0 0.0 0.00 0.00 0.00 84 1022.5
20260903014557 64 0 0.0 0.0 0.00 0.00 0.00 83 1022.4
20260903013053 64 0 0.0 0.0 0.00 0.00 0.00 83 1022.5
20260903011557 64 0 0.0 0.9 0.00 0.00 0.00 83 1022.5
20260903010052 65 0 0.0 0.0 0.00 0.00 0.00 82 1022.6
20260903004559 65 0 0.0 0.0 0.00 0.00 0.00 81 1022.6
20260903003048 65 0 0.0 0.9 0.00 0.00 0.00 81 1022.6
20260903001555 66 0 0.0 0.0 0.00 0.00 0.00 80 1022.5
20260903000052 66 0 0.0 0.0 0.00 0.00 0.00 80 1022.5
20260902234549 66 0 0.0 0.0 0.00 0.00 0.00 80 1022.4
20260902233102 66 0 0.0 0.0 0.00 0.00 0.00 79 1022.2
20260902231552 67 0 0.0 0.0 0.00 0.00 0.00 79 1022.3
20260902230050 67 0 0.0 0.0 0.00 0.00 0.00 78 1022.3
20260902224554 68 0 0.0 0.0 0.00 0.00 0.00 78 1022.3
20260902223115 68 0 0.0 0.0 0.00 0.00 0.00 77 1022.3
20260902221554 68 0 0.0 0.9 0.00 0.00 0.00 77 1022.2
20260902220058 69 0 0.0 0.0 0.00 0.00 0.00 77 1022.2
20260902214554 69 0 0.0 0.0 0.00 0.00 0.00 76 1022.3